[[{"header":{"parameterUnit":"m.s-1","parameterCategory":1,"la1":30.2991,"la2":30.254,"lo1":-89.0895,"lo2":-89.0444,"dy":0.0017,"dx":0.0017,"nx":28,"ny":28,"refTime":"2025-07-14T09:00:00:Z","depth":0,"parameterNumber":2,"parameterNumberName":"U-component_of_WINDS"},"data":[0,0,0,0,0,0,0,0,0,0,0,0,0,0,0,0,0,0,0,0,0,0,0,0,0,0,0,0,0,0,0,0,0,0,0,0,0,0,0,0,0,0,0,0,0,0,0,0,0,0,0,0,0,0,0,0,0,0,1.5946,1.5946,0,1.5935,1.5935,1.5934,1.5882,1.5881,1.5879,1.5878,1.5866,1.5867,1.5868,0,0,0,0,0,0,0,0,0,0,0,0,0,1.5925,1.5926,1.5946,1.5946,1.5946,1.5935,1.5935,1.5934,1.5882,1.5881,1.5879,1.5878,1.5866,1.5867,1.5868,0,0,0,0,0,0,0,0,0,0,0,0,0,1.5926,1.5926,1.5946,1.5919,1.5916,1.5935,1.5935,1.5934,1.5882,1.5881,1.5879,1.5877,1.5866,1.5867,1.5868,1.5913,0,0,1.5872,1.5873,0,0,0,0,0,0,0,0,1.5926,1.5927,1.5923,1.5921,1.5918,1.5908,1.5923,1.5927,1.5883,1.5895,1.5878,1.5876,1.5882,1.5882,1.5883,1.5912,1.5912,1.5872,1.5873,1.5873,1.5874,0,0,0,0,0,0,0,1.5926,1.5927,1.5942,1.5923,1.592,1.5907,1.5905,1.5923,1.5899,1.5894,1.589,1.589,1.588,1.5882,1.5883,1.5912,1.5872,1.5873,1.5874,1.5874,1.5979,1.5981,0,0,0,0,0,0,1.593,1.5927,1.5942,1.5941,1.5917,1.5909,1.5907,1.5913,1.5899,1.5895,1.5891,1.5887,1.5881,1.5881,1.5882,1.5935,1.5873,1.5875,1.5875,1.5977,1.5979,1.5982,0,0,0,0,0,0,1.5929,1.5931,1.5943,1.5933,1.5934,1.5912,1.5919,1.5914,1.5916,1.5896,1.5892,1.5898,1.588,1.588,1.5906,1.5934,1.5875,1.5876,1.5975,1.5978,1.5981,1.6041,0,0,0,0,0,0,1.5929,1.5932,1.5948,1.5934,1.5934,1.5967,1.592,1.5915,1.5918,1.5913,1.5902,1.5898,1.5878,1.5905,1.5907,1.5935,1.5877,1.5972,1.5976,1.598,1.6036,1.6046,1.6054,0,0,0,0,0,1.5928,1.5965,1.5949,1.5951,1.5954,1.5968,1.5969,1.5945,1.5921,1.5937,1.5925,1.5898,1.593,1.5908,1.591,1.5938,1.597,1.5975,1.5979,1.6032,1.6044,1.6053,0,0,0,0,0,0,1.5982,1.5962,1.5945,1.5978,1.5975,1.5959,1.5979,1.5957,1.5962,1.5957,1.5927,1.5925,1.5956,1.5949,1.5925,1.5982,1.5946,1.5951,1.5985,1.5996,1.6004,1.6006,1.5878,0,0,0,0,0,1.5998,1.601,1.5993,1.6023,1.6023,1.6002,1.6007,1.5989,1.5986,1.5984,1.5974,1.5971,1.5981,1.5988,1.5995,1.6035,1.6033,1.6056,1.6064,1.6071,1.6077,1.61,1.611,1.5997,1.5997,1.5997,0,0,1.603,1.6021,1.6031,1.6034,1.603,1.6045,1.6001,1.6018,1.6029,1.5987,1.6011,1.6003,1.5999,1.6032,1.6047,1.6028,1.6108,1.6077,1.6083,1.6085,1.6105,1.6116,1.6126,1.6,1.5999,1.5999,0,0,1.6097,1.6091,1.6117,1.6114,1.6109,1.6095,1.6101,1.6089,1.6083,1.6107,1.6076,1.6089,1.6106,1.6104,1.6106,1.6175,1.6151,1.6178,1.6224,1.6246,1.6255,1.6263,1.629,1.6299,1.6183,1.6183,1.6184,0,1.6138,1.6159,1.6133,1.6153,1.6156,1.6119,1.6146,1.6145,1.6142,1.6146,1.6125,1.6147,1.614,1.6175,1.6192,1.6193,1.6201,1.618,1.6256,1.6263,1.627,1.6295,1.6305,1.6187,1.6186,1.6186,1.6186,0,1.6211,1.6226,1.6248,1.6247,1.6253,1.6276,1.6255,1.6263,1.6246,1.6234,1.626,1.6252,1.6259,1.6265,1.6247,1.6297,1.6286,1.6261,1.6224,1.6285,1.6308,1.6318,1.6192,1.6191,1.619,1.6189,0,0,1.6311,1.6297,1.6306,1.6306,1.6299,1.631,1.6332,1.6339,1.6348,1.6348,1.6367,1.6383,1.636,1.6362,1.6344,1.6364,1.6422,1.6337,1.6336,1.6354,1.6479,1.6499,1.651,1.6406,1.6407,1.6409,1.648,0,1.6377,1.6414,1.6392,1.6433,1.6448,1.6414,1.6433,1.6431,1.6422,1.6433,1.6422,1.6435,1.6403,1.6404,1.6422,1.6411,1.6447,1.6405,1.6425,1.6426,1.6428,1.6522,1.6543,1.6611,1.6489,1.649,1.6491,0,1.6458,1.6463,1.6506,1.6497,1.6502,1.6521,1.6526,1.6537,1.6535,1.6526,1.653,1.6508,1.653,1.6493,1.6524,1.6497,1.6503,1.6499,1.6502,1.6504,1.6463,1.6529,1.6631,1.6642,1.6505,1.6504,1.6503,0,1.653,1.6546,1.6575,1.6576,1.6566,1.658,1.6577,1.6572,1.6579,1.6584,1.6588,1.6595,1.6599,1.6606,1.6587,1.6562,1.6622,1.6583,1.6617,1.6617,1.6632,1.6631,1.6739,1.6633,1.6633,1.6633,1.6633,0,1.6606,1.6634,1.6607,1.6624,1.6655,1.663,1.6662,1.6655,1.6652,1.6668,1.6638,1.6655,1.6628,1.6641,1.6626,1.6656,1.6658,1.6652,1.6649,1.6656,1.6657,1.6661,1.6657,1.6636,1.6635,1.6635,1.6634,0,1.6691,1.6674,1.6703,1.6692,1.669,1.6714,1.6705,1.6721,1.6709,1.6731,1.6734,1.6717,1.6731,1.6713,1.6725,1.6716,1.6757,1.6745,1.6758,1.6755,1.6791,1.6789,1.6906,1.6921,1.6804,1.6805,1.6806,0,1.6742,1.6763,1.6755,1.6764,1.6763,1.6777,1.6784,1.6761,1.6769,1.6769,1.6786,1.6799,1.6807,1.6833,1.6821,1.6832,1.6821,1.6861,1.6822,1.683,1.6824,1.6824,1.6827,1.687,1.6871,1.6872,1.6873,0,1.6835,1.6826,1.6836,1.6845,1.6854,1.6859,1.6862,1.6872,1.6848,1.6859,1.6874,1.6881,1.6895,1.6908,1.6916,1.6913,1.689,1.6886,1.6894,1.6903,1.6911,1.6909,1.6782,1.6883,1.6882,1.6881,1.6881,1.688,1.6906,1.6924,1.6921,1.6935,1.6935,1.6939,1.6955,1.6946,1.6958,1.6968,1.6954,1.6973,1.6972,1.698,1.698,1.6996,1.6978,1.699,1.6994,1.6998,1.7004,1.6907,1.6997,1.6996,1.6996,1.6996,1.6995,0,1.6999,1.6996,1.7009,1.7015,1.7026,1.7003,1.7006,1.7017,1.7035,1.7036,1.7046,1.7064,1.7078,1.7068,1.7079,1.7094,1.7084,1.7098,1.7098,1.7098,1.7018,1.701,1.7106,1.7106,1.7106,1.7106,1.7106,1.7106,1.7048,1.7078,1.707,1.71,1.7097,1.7116,1.712,1.7125,1.7125,1.7148,1.7159,1.7153,1.715,1.7161,1.7173,1.717,1.7176,1.7194,1.7188,1.7114,1.7103,1.7093,1.7085,1.7196,1.7196,1.7267,1.7267,1.7268]},{"header":{"parameterUnit":"m.s-1","parameterCategory":1,"la1":30.2991,"la2":30.254,"lo1":-89.0895,"lo2":-89.0444,"dy":0.0017,"dx":0.0017,"nx":28,"ny":28,"refTime":"2025-07-14T09:00:00:Z","depth":0,"parameterNumber":3,"parameterNumberName":"V-component_of_WINDS"},"data":[0,0,0,0,0,0,0,0,0,0,0,0,0,0,0,0,0,0,0,0,0,0,0,0,0,0,0,0,0,0,0,0,0,0,0,0,0,0,0,0,0,0,0,0,0,0,0,0,0,0,0,0,0,0,0,0,0,0,-2.9468,-2.9469,0,-2.9539,-2.9539,-2.954,-2.9564,-2.9563,-2.9563,-2.9563,-2.9632,-2.9634,-2.9636,0,0,0,0,0,0,0,0,0,0,0,0,0,-2.9353,-2.9355,-2.9468,-2.9469,-2.947,-2.9538,-2.9539,-2.954,-2.9564,-2.9563,-2.9563,-2.9563,-2.9631,-2.9634,-2.9636,0,0,0,0,0,0,0,0,0,0,0,0,0,-2.9411,-2.9355,-2.9468,-2.949,-2.9492,-2.9538,-2.9539,-2.9541,-2.9564,-2.9563,-2.9563,-2.9562,-2.963,-2.9634,-2.9637,-2.9665,0,0,-2.9646,-2.9648,0,0,0,0,0,0,0,0,-2.9407,-2.9415,-2.9486,-2.9488,-2.9491,-2.9542,-2.9524,-2.9582,-2.9564,-2.9536,-2.9563,-2.9562,-2.9602,-2.9608,-2.9622,-2.9668,-2.9671,-2.9647,-2.9649,-2.965,-2.9651,0,0,0,0,0,0,0,-2.9403,-2.9412,-2.9496,-2.9487,-2.949,-2.9496,-2.9504,-2.9535,-2.9571,-2.9539,-2.9541,-2.9549,-2.9604,-2.9619,-2.9624,-2.9672,-2.9647,-2.9649,-2.9651,-2.9653,-2.9749,-2.9749,0,0,0,0,0,0,-2.9396,-2.9409,-2.9494,-2.9498,-2.9448,-2.9498,-2.9507,-2.9526,-2.9571,-2.9577,-2.9549,-2.955,-2.9613,-2.962,-2.9626,-2.9664,-2.965,-2.9653,-2.9655,-2.9748,-2.9749,-2.9749,0,0,0,0,0,0,-2.9393,-2.9403,-2.9491,-2.9454,-2.9465,-2.9501,-2.9522,-2.9528,-2.9543,-2.9578,-2.9585,-2.9558,-2.9613,-2.9622,-2.9656,-2.9667,-2.9654,-2.9657,-2.9747,-2.9748,-2.9749,-2.974,0,0,0,0,0,0,-2.939,-2.9402,-2.9413,-2.9454,-2.9467,-2.952,-2.9523,-2.9529,-2.9548,-2.955,-2.9588,-2.9594,-2.9614,-2.9651,-2.9659,-2.9671,-2.966,-2.9746,-2.9748,-2.9749,-2.9739,-2.974,-2.9741,0,0,0,0,0,-2.9386,-2.9406,-2.9414,-2.9424,-2.9482,-2.952,-2.9528,-2.955,-2.9549,-2.9561,-2.9584,-2.9593,-2.9664,-2.9655,-2.9664,-2.9677,-2.9746,-2.9747,-2.9749,-2.9739,-2.974,-2.9741,0,0,0,0,0,0,-2.9364,-2.9412,-2.9421,-2.9455,-2.9484,-2.9524,-2.9539,-2.9551,-2.9579,-2.9579,-2.9605,-2.9613,-2.9646,-2.9665,-2.9653,-2.9708,-2.9706,-2.9709,-2.9695,-2.9696,-2.9697,-2.9692,-2.9662,0,0,0,0,0,-2.9364,-2.9392,-2.9432,-2.9458,-2.9472,-2.9503,-2.9521,-2.9536,-2.9566,-2.9578,-2.9604,-2.9632,-2.9661,-2.968,-2.9708,-2.9742,-2.9752,-2.9755,-2.9756,-2.9757,-2.976,-2.9782,-2.9784,-2.9754,-2.9754,-2.9754,0,0,-2.9363,-2.9392,-2.9408,-2.9455,-2.9479,-2.9507,-2.9513,-2.9542,-2.9563,-2.9582,-2.9617,-2.9637,-2.967,-2.9706,-2.9722,-2.9722,-2.9771,-2.9759,-2.9759,-2.9762,-2.9783,-2.9786,-2.9789,-2.9755,-2.9755,-2.9755,0,0,-2.9376,-2.94,-2.9427,-2.9451,-2.9488,-2.9509,-2.9515,-2.9555,-2.957,-2.9605,-2.9621,-2.9646,-2.9695,-2.9719,-2.9738,-2.9763,-2.9773,-2.9771,-2.9776,-2.9797,-2.98,-2.9802,-2.9813,-2.9816,-2.9774,-2.9774,-2.9774,0,-2.9369,-2.9413,-2.9438,-2.9468,-2.9488,-2.9509,-2.9536,-2.9558,-2.9602,-2.9616,-2.9615,-2.9679,-2.9703,-2.9745,-2.9751,-2.9765,-2.9774,-2.9767,-2.9797,-2.98,-2.9802,-2.9813,-2.9817,-2.9773,-2.9773,-2.9773,-2.9774,0,-2.9405,-2.9435,-2.9451,-2.9496,-2.9518,-2.9546,-2.9576,-2.9596,-2.961,-2.9631,-2.9668,-2.9698,-2.9734,-2.9745,-2.9758,-2.979,-2.9789,-2.9792,-2.9791,-2.9805,-2.9815,-2.9819,-2.9773,-2.9773,-2.9773,-2.9773,0,0,-2.9404,-2.9464,-2.947,-2.9492,-2.9535,-2.9559,-2.9588,-2.9625,-2.9643,-2.9673,-2.9699,-2.9741,-2.9746,-2.9767,-2.9783,-2.9801,-2.9822,-2.9803,-2.9804,-2.9807,-2.9862,-2.986,-2.9864,-2.9829,-2.983,-2.983,-2.986,0,-2.9424,-2.9479,-2.9503,-2.9547,-2.9576,-2.9597,-2.9623,-2.9653,-2.9674,-2.9702,-2.9725,-2.9756,-2.9758,-2.9772,-2.9791,-2.9815,-2.9834,-2.9813,-2.9854,-2.9855,-2.9846,-2.9869,-2.9866,-2.9893,-2.9864,-2.9864,-2.9865,0,-2.9453,-2.9486,-2.9533,-2.9576,-2.9589,-2.9612,-2.965,-2.9676,-2.9711,-2.9725,-2.975,-2.9766,-2.9799,-2.9795,-2.9841,-2.9827,-2.9845,-2.986,-2.9861,-2.9867,-2.9861,-2.9876,-2.9901,-2.9906,-2.9871,-2.9871,-2.987,0,-2.945,-2.9506,-2.9542,-2.956,-2.961,-2.9626,-2.9648,-2.9682,-2.9704,-2.9736,-2.9751,-2.9786,-2.9805,-2.9832,-2.9858,-2.9852,-2.9902,-2.99,-2.9916,-2.9915,-2.9926,-2.9925,-2.9955,-2.9935,-2.9935,-2.9935,-2.9935,0,-2.947,-2.9498,-2.9542,-2.9564,-2.9598,-2.9626,-2.9658,-2.9681,-2.9712,-2.974,-2.9759,-2.9784,-2.9816,-2.9845,-2.9865,-2.9902,-2.991,-2.9923,-2.9928,-2.9922,-2.992,-2.9934,-2.9934,-2.9936,-2.9936,-2.9936,-2.9935,0,-2.9472,-2.9502,-2.9544,-2.9589,-2.9602,-2.9624,-2.9663,-2.9686,-2.9709,-2.9744,-2.9754,-2.979,-2.9826,-2.9854,-2.99,-2.9914,-2.9953,-2.9957,-2.9942,-2.9944,-2.996,-2.9959,-3.0001,-3.0009,-2.9982,-2.9982,-2.9983,0,-2.9483,-2.9506,-2.9555,-2.9576,-2.9598,-2.963,-2.9654,-2.9683,-2.9706,-2.975,-2.9768,-2.9805,-2.9837,-2.9894,-2.9924,-2.9961,-2.9967,-2.998,-2.9973,-2.9967,-2.997,-2.9969,-2.9972,-2.9981,-2.9981,-2.9981,-2.9981,0,-2.95,-2.9515,-2.9547,-2.9587,-2.9615,-2.9646,-2.9679,-2.9694,-2.973,-2.9755,-2.9794,-2.9819,-2.9868,-2.9906,-2.9946,-2.9968,-2.9981,-2.9983,-2.9989,-2.9984,-2.9974,-2.9982,-2.9945,-2.9982,-2.9982,-2.9982,-2.9982,-2.9982,-2.9507,-2.953,-2.9569,-2.9606,-2.9634,-2.9665,-2.969,-2.9717,-2.975,-2.9794,-2.9809,-2.9849,-2.9885,-2.9941,-2.9964,-2.9996,-2.9996,-3.0004,-3.0006,-3.0008,-3.0009,-2.9969,-3.0003,-3.0003,-3.0003,-3.0003,-3.0003,0,-2.9527,-2.9554,-2.9588,-2.9634,-2.9663,-2.9675,-2.9712,-2.9736,-2.9771,-2.9805,-2.9837,-2.9883,-2.992,-2.9955,-2.9994,-3.0013,-3.0021,-3.0023,-3.0022,-3.0028,-3.0005,-2.9997,-3.0017,-3.0017,-3.0017,-3.0017,-3.0017,-3.0017,-2.954,-2.958,-2.96,-2.9654,-2.9681,-2.9721,-2.9742,-2.9771,-2.9798,-2.9849,-2.9881,-2.9904,-2.9938,-2.9981,-3.0017,-3.0026,-3.004,-3.0041,-3.0052,-3.003,-3.0029,-3.0027,-3.002,-3.0044,-3.0044,-3.0073,-3.0073,-3.0073]}]]